Other Surface Observations
Issued by NWS Tucson, AZ

Home | Current Version | Previous Version | Text Only | Print | Product List | Glossary On
Versions: 1 2 3 4 5 6 7 8 9 10 11 12 13 14 15 16 17 18 19 20 21 22 23 24 25 26 27 28 29 30 31 32 33 34 35 36 37 38 39 40 41 42 43 44 45 46 47 48 49 50
000
SXUS55 KTWC 222115
OSOTWC

WEATHER ROUNDUP FOR SOUTHEAST ARIZONA
NATIONAL WEATHER SERVICE TUCSON AZ
215 PM MST FRI MAY 22 2015

AZZ504>506-514-222215-
LOCATION       SKY/WX    TMP DP  RH WIND       PRES   REMARKS
TUCSON         SUNNY     82  19   9 SW15G25   29.92S
DAVIS-MONTHAN  SUNNY     81  18   9 SW14G25   29.89S
CHILDRENS PARK N/A       79  22  12 SW12              PIMA CO DEQ
ALVERNON/22ND  N/A      N/A N/A N/A N/A               PIMA CO DEQ
CHERRY/GLENN   N/A      N/A N/A N/A N/A               PIMA CO DEQ
TANGERINE      N/A       80 N/A N/A SW15              PIMA CO DEQ
CONTL RANCH    N/A       82  24  12 SW14              PIMA CO DEQ
GRANT/1ST      N/A       80  23  12 SW10              PIMA CO DEQ
CRAYCROFT/22ND N/A      N/A N/A N/A N/A               PIMA CO DEQ
GOLFLINKS/KOLB N/A      N/A N/A N/A N/A               PIMA CO DEQ
AJO/12TH       N/A       80  21  11 S17               PIMA CO DEQ
SAGUARO EAST   N/A      N/A N/A N/A N/A               PIMA CO DEQ
FAIRGROUNDS    N/A       79 N/A N/A SW20              PIMA CO DEQ
SAGUARO        N/A       82  20  10 SW11G22           *SABINO CYN
SAN CARLOS     N/A       78  21  12 SW14G23           *SAN CARLOS
GREEN VALLEY   N/A       79  22  12 SW16              PIMA CO DEQ
HORSE CAMP CYN N/A       74  20  13 SW22G32           *ARAVAIPA CYN
RINCON MTNS    N/A        0   0   6 SW6G19            *NR MANNING CAMP
$$

AZZ509>511-222215-
LOCATION       SKY/WX    TMP DP  RH WIND       PRES   REMARKS
SAFFORD        SUNNY     85  14   7 S23       29.83F
STRAY HORSE    N/A       63  16  16 S8G20             *
TRAIL CABIN    N/A       69  14  12 SW10G21           *N OF GRANVILLE
BLACK HILLS    N/A       83  16   8 SW9G26            *N OF FT THOMAS
DRY LAKE       N/A       63  16  16 S12G23            *NATANES MTNS
NOON CREEK     N/A       76  16  10 SW9G22            *PINALENO MTNS
COLUMBINE      N/A       52   1  12 S9G21             *PINALENO MTNS
GUTHRIE        N/A       69  12  11 S18G33            *SW OF GUTHRIE
$$

AZZ502-503-513-222215-
LOCATION       SKY/WX    TMP DP  RH WIND       PRES   REMARKS
NOGALES        MOSUNNY   77  24  14 SW20G31   29.97F
SELLS          N/A       77  33  20 SW21G29           *
SASABE         N/A       75  26  16 SW23G35           *ALTAR VLY
HOPKINS        N/A       64  21  19 SW11G27           *SANTA RITA MTNS
CARR CYN       N/A       72  26  18 NE8G20            *W OF HEREFORD
$$

AZZ507-508-512-222215-
LOCATION       SKY/WX    TMP DP  RH WIND       PRES   REMARKS
SIERRA VISTA   MOSUNNY   75  19  12 W21G26    29.99S
DOUGLAS        MOSUNNY   83  17   8 S22G31    29.96F
EMPIRE MTNS    N/A       74  22  14 SW18G31           *LAS CIENEGAS NCA
MULESHOE RANCH N/A       75  19  12 SW11G24           *PRESERVE
HEADQUARTERS   N/A       74  12   9 SW8G21            *CHIRICAHUA MTNS
$$

.............................NOTES.............................
THIS IS AN AUTOMATED COLLECTIVE WITH MINIMAL QUALITY CONTROL.
PIMA CO DEQ SITES HAVE NONSTANDARD WIND SENSOR HEIGHTS.
PIMA CO DEQ SITES DO NOT REPORT WIND GUSTS.
* INDICATES WIND SENSORS LOCATED AT 20 FEET INSTEAD OF 33 FEET.
..............................KEY..............................
SKY/WX - SKY CONDITION/WEATHER
TMP    - TEMPERATURE IN FAHRENHEIT
DP     - DEWPOINT IN FAHRENHEIT
RH     - RELATIVE HUMIDITY IN PERCENT
WIND   - DIRECTION AND SPEED IN MILES PER HOUR (MPH)
VRB    - VARIABLE WIND DIRECTION
PRES   - MEAN SEA LEVEL PRESSURE IN INCHES OF MERCURY
         F - FALLING PRESSURE   R - RISING PRESSURE
         S - STEADY PRESSURE
VSB    - VISIBILITY IN MILES
HX     - HEAT INDEX IN FAHRENHEIT
WCI    - WIND CHILL INDEX IN FAHRENHEIT
N/A    - NOT AVAILABLE
AFB    - AIR FORCE BASE
         DAVIS-MONTHAN IS DAVIS-MONTHAN AIR FORCE BASE
CYN    - CANYON
MTNS   - MOUNTAINS
NCA    - NATIONAL CONSERVATION AREA
NR     - NEAR
VLY    - VALLEY
CONTL  - CONTINENTAL
PIMA CO DEQ - PIMA COUNTY DEPT OF ENVIRONMENTAL QUALITY



USA.gov is the U.S. government's official web portal to all federal, state and local government web resources and services.